Location: Chippewa Lake
(41.0698°N, 81.9010°W)
Time: 02:14:31
(UTC+00:00)

FALCON 9 DEB - Pass Details

Date: 09 May 2021
Orbit: 368 x 379 km, 53.0° (Epoch: 24 June)

Event Time Altitude Azimuth Distance (km) Brightness Sun altitude
Rises 01:38:53 0° 308° (NW) 2,219 8.9 -11.7°
Reaches altitude 10° 01:40:56 10° 308° (NW) 1,366 7.2 -12.0°
Maximum altitude 01:43:58 85° 222° (SW) 373 2.7 -12.5°
Enters shadow 01:45:35 25° 132° (SE) 790 3.8 -12.7°
